EW8277 Weather Reports


time (UTC)temp
C
wind
direction
speed
KPH
gust
KPH
rain 1hr
cm
rain 24hr
cm
rain mn
cm
humidity
%
barometer
mb
20260510190032 29 251 0.0 0.0 0.00 0.00 0.00 36 1012.9
20260510184507 29 251 0.0 0.0 0.00 0.00 0.00 35 1013.1
20260510183008 30 251 0.0 0.0 0.00 0.00 0.00 34 1013.3
20260510181619 29 256 0.0 0.0 0.00 0.00 0.00 36 1013.4
20260510180104 28 162 0.0 0.0 0.00 0.00 0.00 39 1013.5
20260510174550 28 171 0.0 0.0 0.00 0.00 0.00 40 1013.6
20260510173047 28 173 0.0 0.0 0.00 0.00 0.00 40 1013.6
20260510171544 27 176 0.0 0.0 0.00 0.00 0.00 41 1013.7
20260510170040 28 209 0.0 0.0 0.00 0.00 0.00 43 1013.8
20260510164549 28 209 0.0 0.0 0.00 0.00 0.00 42 1013.9
20260510163035 28 217 0.0 0.0 0.00 0.00 0.00 41 1014.1
20260510161529 27 146 0.0 0.0 0.00 0.00 0.00 43 1014.2
20260510160032 27 146 0.0 0.0 0.00 0.00 0.00 46 1014.2
20260510154521 26 146 0.0 0.0 0.00 0.00 0.00 49 1014.3
20260510153024 26 196 0.0 0.0 0.00 0.00 0.00 49 1014.6
20260510151533 26 196 0.0 0.0 0.00 0.00 0.00 51 1014.6
20260510150028 25 196 0.0 0.0 0.00 0.00 0.00 54 1014.5
20260510144526 24 196 0.0 0.0 0.00 0.00 0.00 54 1014.4
20260510143019 23 237 0.0 0.0 0.00 0.00 0.00 63 1014.4
20260510141557 22 237 0.0 0.0 0.00 0.00 0.00 65 1014.4
20260510140054 21 237 0.0 0.0 0.00 0.00 0.00 66 1014.4
20260510134531 20 237 0.0 0.0 0.00 0.00 0.00 56 1014.5
20260510133027 18 309 0.0 0.0 0.00 0.00 0.00 100 1014.5
20260510131506 17 309 0.0 0.0 0.00 0.00 0.00 100 1014.5
20260510130001 16 309 0.0 0.0 0.00 0.00 0.00 100 1014.4
20260510124604 16 309 0.0 0.0 0.00 0.00 0.00 100 1014.2
20260510123039 15 309 0.0 0.0 0.00 0.00 0.00 100 1014.0
20260510121521 15 309 0.0 0.0 0.00 0.00 0.00 100 1014.0
20260510120016 14 309 0.0 0.0 0.00 0.00 0.00 100 1013.7
20260510114514 13 309 0.0 0.0 0.00 0.00 0.00 100 1013.6
20260510113013 13 309 0.0 0.0 0.00 0.00 0.00 100 1013.5
20260510111503 13 309 0.0 0.0 0.00 0.00 0.00 100 1013.3
20260510110101 13 309 0.0 0.0 0.00 0.00 0.00 100 1013.0
20260510104607 13 309 0.0 0.0 0.00 0.00 0.00 100 1012.7
20260510103050 13 309 0.0 0.0 0.00 0.00 0.00 100 1012.5
20260510101545 13 309 0.0 0.0 0.00 0.00 0.00 100 1012.2
20260510100024 13 309 0.0 0.0 0.00 0.00 0.00 100 1012.0
20260510094522 14 309 0.0 0.0 0.00 0.00 0.00 100 1011.9
20260510093100 14 309 0.0 0.0 0.00 0.00 0.00 100 1011.7
20260510091602 14 309 0.0 0.0 0.00 0.00 0.00 100 1011.6
20260510090033 14 309 0.0 0.0 0.00 0.00 0.00 100 1011.5
20260510084530 14 309 0.0 0.0 0.00 0.00 0.00 100 1011.4
20260510083008 15 309 0.0 0.0 0.00 0.00 0.00 100 1011.1
20260510081511 15 309 0.0 0.0 0.00 0.00 0.00 100 1011.1
20260510080042 15 309 0.0 0.0 0.00 0.00 0.00 100 1011.0
20260510074538 15 309 0.0 0.0 0.00 0.00 0.00 100 1011.0
20260510073027 15 309 0.0 0.0 0.00 0.00 0.00 100 1010.9
20260510071516 15 309 0.0 0.0 0.00 0.00 0.00 100 1010.9
20260510070107 15 309 0.0 0.0 0.00 0.00 0.00 100 1011.0
20260510064608 15 309 0.0 0.0 0.00 0.00 0.00 100 1011.0
20260510063051 15 309 0.0 0.0 0.00 0.00 0.00 100 1010.9
20260510061550 15 309 0.0 0.0 0.00 0.00 0.00 100 1010.6
20260510060042 15 309 0.0 0.0 0.00 0.00 0.00 100 1010.9
20260510054536 15 309 0.0 0.0 0.00 0.00 0.00 100 1011.1
20260510053031 15 309 0.0 0.0 0.00 0.00 0.00 100 1011.2
20260510051527 15 309 0.0 0.0 0.00 0.00 0.00 100 1011.3
20260510050006 15 309 0.0 0.0 0.00 0.00 0.00 100 1011.5
20260510044502 16 309 0.0 0.0 0.00 0.00 0.00 100 1011.4
20260510043039 16 309 0.0 0.0 0.00 0.00 0.00 100 1011.5
20260510041538 16 309 0.0 0.0 0.00 0.00 0.00 100 1011.3
20260510040030 16 309 0.0 0.0 0.00 0.00 0.00 100 1011.4
20260510034526 16 309 0.0 0.0 0.00 0.00 0.00 100 1011.3
20260510033021 16 309 0.0 0.0 0.00 0.00 0.00 100 1011.2
20260510031517 16 309 0.0 0.0 0.00 0.00 0.00 100 1011.2
20260510030012 16 309 0.0 0.0 0.00 0.00 0.00 100 1011.1
20260510024508 17 309 0.0 0.0 0.00 0.00 0.00 100 1011.0
20260510023047 17 309 0.0 0.0 0.00 0.00 0.00 100 1011.0
20260510021543 17 309 0.0 0.0 0.00 0.00 0.00 100 1010.9
20260510020023 17 309 0.0 0.0 0.00 0.00 0.00 10 1010.9
20260510014525 18 309 0.0 0.0 0.00 0.00 0.00 19 1010.7
20260510013102 18 309 0.0 0.0 0.00 0.00 0.00 31 1010.3
20260510011553 18 309 0.0 0.0 0.00 0.00 0.00 42 1010.0
20260510010031 19 309 0.0 0.0 0.00 0.00 0.00 51 1009.8
20260510004527 20 309 0.0 0.0 0.00 0.00 0.00 58 1009.8
20260510003015 20 309 0.0 0.0 0.00 0.00 0.00 63 1009.8
20260510001511 21 309 0.0 0.0 0.00 0.00 0.00 66 1009.8
20260510000008 21 309 0.0 0.0 0.00 0.00 0.00 68 1009.5
20260509234517 22 309 0.0 0.0 0.00 0.00 0.00 69 1009.4
20260509233007 22 309 0.0 0.0 0.00 0.00 0.00 69 1009.0
20260509231501 22 305 0.0 0.0 0.00 0.00 0.00 69 1009.1
20260509230107 22 305 0.0 0.0 0.00 0.00 0.00 69 1008.9
20260509224603 22 312 0.0 0.0 0.00 0.00 0.00 69 1008.8
20260509223043 22 1 0.0 0.0 0.00 0.00 0.00 69 1008.9
20260509221541 22 159 0.0 0.0 0.00 0.00 0.00 69 1008.9
20260509220030 23 42 0.0 0.0 0.00 0.00 0.00 68 1009.0
20260509214529 23 223 0.0 0.0 0.00 0.00 0.00 69 1008.9
20260509213028 22 126 0.0 0.0 0.00 0.00 0.00 69 1009.0
20260509211525 22 107 0.0 0.0 0.00 0.00 0.00 69 1008.8
20260509210026 23 273 0.0 0.0 0.00 0.00 0.00 68 1008.6
20260509204522 23 278 0.0 0.0 0.00 0.00 0.00 68 1008.8
20260509203030 23 118 0.0 0.0 0.00 0.00 0.00 67 1008.8
20260509201516 23 192 0.0 0.0 0.00 0.00 0.00 67 1008.9
20260509200103 22 241 0.0 0.0 0.00 0.00 0.00 69 1008.8
20260509194550 22 125 0.0 0.0 0.00 0.00 0.00 68 1009.1
20260509193028 22 218 0.0 0.0 0.00 0.00 0.00 68 1009.3
20260509191524 22 79 0.0 0.0 0.00 0.00 0.00 68 1009.4